Location: Liberec
(50.7833°N, 15.0500°E)
Time: 07:36:03
(UTC+02:00)

ISS - Visible Passes

Search period start: 25 September 2018 00:00
Search period end: 05 October 2018 00:00
Orbit: 403 x 408 km, 51.6° (Epoch: 25 September)

Date Brightness Start Highest point End Pass type
(mag) Time Alt. Az. Time Alt. Az. Time Alt. Az.
25 Sep -2.3 19:28:08 10° SSW 19:30:45 22° SE 19:33:22 10° E visible
25 Sep -3.0 21:03:37 10° WSW 21:06:04 46° WSW 21:06:04 46° WSW visible
26 Sep -3.7 20:11:51 10° SW 20:15:05 55° SSE 20:16:23 31° E visible
26 Sep -1.0 21:48:16 10° W 21:49:05 16° W 21:49:05 16° W visible
27 Sep -3.1 19:20:11 10° SW 19:23:17 38° SSE 19:26:23 10° E visible
27 Sep -3.5 20:56:21 10° W 20:59:17 67° W 20:59:17 67° W visible
28 Sep -3.9 20:04:27 10° WSW 20:07:45 83° SSE 20:09:26 27° E visible
28 Sep -1.1 21:41:02 10° W 21:42:06 19° W 21:42:06 19° W visible
29 Sep -3.7 19:12:36 10° WSW 19:15:53 63° SSE 19:19:09 10° ENE visible
29 Sep -3.6 20:49:06 10° W 20:52:11 70° NW 20:52:11 70° NW visible
30 Sep -3.8 19:57:08 10° W 20:00:27 78° N 20:02:14 25° ENE visible
30 Sep -1.2 21:33:44 10° WNW 21:34:54 20° WNW 21:34:54 20° WNW visible
01 Oct -3.7 20:41:47 10° W 20:44:55 75° NW 20:44:55 75° NW visible
02 Oct -3.8 19:49:49 10° W 19:53:07 74° N 19:54:55 25° E visible
02 Oct -1.2 21:26:22 10° WNW 21:27:35 20° W 21:27:35 20° W visible
03 Oct -3.8 20:34:24 10° WNW 20:37:35 78° SW 20:37:35 78° SW visible
04 Oct -3.9 19:42:25 10° W 19:45:44 84° N 19:47:35 24° E visible
04 Oct -1.2 21:19:01 10° W 21:20:15 19° W 21:20:15 19° W visible
